Voltar ao catálogo

ONEWEB-0578

AtivoComunicaçõesPO
NORAD 56067·PAYLOAD·🇬🇧 United Kingdom

Lançado Mar 26, 2023 de Satish Dhawan Space Centre

Loading…

Próximas Passagens (próximas 24 horas)

TLE

AtualizadoSource: CelesTrak SupGP

Época: Sep 14, 2026, 15:48 UTC

1 56067C 23043X   26257.65886991 -.00000772  00000+0 -18712-2 0  2575
2 56067  87.9280 226.1636 0001976  91.0992 304.1505 13.21826586    10

Acompanhe ONEWEB-0578 em tempo real com AllMySat

Download on the App Store